Location: Street
(51.1247°N, 2.7429°W)
Time: 06:10:05
(UTC+00:00)

SR - Pass Details

Date: 02 December 2020
Orbit: 575 x 880 km, 66.7° (Epoch: 25 January)

Event Time Altitude Azimuth Distance (km) Brightness Sun altitude
Rises 22:13:15 0° 308° (NW) 3,012 - -54.3°
Reaches altitude 10° 22:16:42 10° 335° (NNW) 2,168 - -54.7°
Maximum altitude 22:19:11 14° 5° (N) 1,974 - -54.9°
Drops below altitude 10° 22:21:47 10° 36° (NE) 2,271 - -55.2°
Sets 22:25:33 0° 61° (ENE) 3,273 - -55.6°
